Location: Guferjoch
(46.7462°N, 8.4506°E)
Time: 23:48:58
(UTC+00:00)

Cosmos 1356 - Pass Details

Date: 14 July 2020
Orbit: 443 x 447 km, 81.1° (Epoch: 14 August)

Event Time Altitude Azimuth Distance (km) Brightness Sun altitude
Exits shadow 02:04:53 18° 178° (S) 1,155 5.0 -13.4°
Maximum altitude 02:07:16 67° 99° (E) 490 3.6 -13.2°
Drops below altitude 10° 02:10:42 10° 16° (NNE) 1,584 7.4 -12.8°
Sets 02:12:47 0° 14° (NNE) 2,460 8.5 -12.6°
